Location: Newark
(49.1022°N, 20.8503°E)
Time: 07:02:20
(UTC+00:00)

Envisat - Pass Details

Date: 27 September 2020
Orbit: 764 x 766 km, 98.1° (Epoch: 21 October)

Event Time Altitude Azimuth Distance (km) Brightness Sun altitude
Rises 16:51:15 0° 202° (SSW) 3,221 6.5 -5.4°
Reaches altitude 10° 16:54:01 10° 217° (SW) 2,300 6.0 -5.9°
Maximum altitude 16:57:59 23° 269° (W) 1,606 5.9 -6.5°
Drops below altitude 10° 17:01:57 10° 320° (NW) 2,313 6.2 -7.2°
Sets 17:04:45 0° 336° (NNW) 3,245 6.7 -7.6°
